EN

Hourly Weather Trykhats'ke

Today, 13 April, Tuesday

Time Temperature Precipitation Wind Pressure Humidity
00:00 +9°C° 0 mm 1 mps 760 mmHg 85%
01:00 +9°C° 0 mm 1 mps 760 mmHg 86%
02:00 +9°C° 0 mm 1 mps 760 mmHg 87%
03:00 +9°C° 0 mm 1 mps 760 mmHg 88%
04:00 +9°C° 0 mm 1 mps 760 mmHg 89%
05:00 +9°C° 0 mm 1 mps 760 mmHg 89%
06:00 +8°C° 0 mm 2 mps 760 mmHg 88%
07:00 +8°C° 0 mm 2 mps 760 mmHg 87%
08:00 +8°C° 0 mm 2 mps 760 mmHg 86%
09:00 +8°C° 0 mm 2 mps 760 mmHg 85%
10:00 +9°C° 0 mm 2 mps 761 mmHg 85%
11:00 +9°C° 0 mm 3 mps 761 mmHg 85%
12:00 +9°C° 0 mm 3 mps 760 mmHg 84%
13:00 +9°C° 0 mm 3 mps 760 mmHg 83%
14:00 +9°C° 0 mm 2 mps 760 mmHg 82%
15:00 +10°C° 0 mm 2 mps 760 mmHg 80%
16:00 +10°C° 0 mm 2 mps 760 mmHg 79%
17:00 +10°C° 0 mm 2 mps 760 mmHg 77%
18:00 +10°C° 0 mm 2 mps 759 mmHg 80%
19:00 +9°C° 0 mm 2 mps 759 mmHg 84%
20:00 +8°C° 0 mm 2 mps 759 mmHg 87%
21:00 +8°C° 0 mm 2 mps 759 mmHg 86%
22:00 +8°C° 0 mm 2 mps 759 mmHg 85%
23:00 +7°C° 0 mm 2 mps 759 mmHg 84%

Tomorrow, 14 April, Wednesday

Time Temperature Precipitation Wind Pressure Humidity
00:00 +7°C° 0 mm 2 mps 759 mmHg 84%
01:00 +7°C° 0 mm 2 mps 759 mmHg 85%
02:00 +6°C° 0 mm 2 mps 758 mmHg 85%
03:00 +6°C° 0 mm 2 mps 758 mmHg 87%
04:00 +5°C° 0 mm 2 mps 758 mmHg 89%
05:00 +5°C° 0 mm 2 mps 758 mmHg 90%
06:00 +5°C° 0 mm 3 mps 758 mmHg 84%
07:00 +8°C° 0 mm 3 mps 758 mmHg 78%
08:00 +9°C° 0 mm 3 mps 758 mmHg 72%
09:00 +11°C° 0 mm 4 mps 758 mmHg 66%
10:00 +12°C° 0 mm 4 mps 757 mmHg 60%
11:00 +13°C° 0 mm 5 mps 757 mmHg 53%
12:00 +14°C° 0 mm 4 mps 757 mmHg 51%
13:00 +14°C° 0 mm 4 mps 756 mmHg 49%
14:00 +15°C° 0 mm 4 mps 756 mmHg 47%
15:00 +14°C° 0 mm 4 mps 756 mmHg 52%
16:00 +13°C° 0 mm 4 mps 755 mmHg 57%
17:00 +12°C° 0 mm 4 mps 755 mmHg 62%
18:00 +11°C° 0.1 mm 4 mps 755 mmHg 69%
19:00 +10°C° 0.1 mm 4 mps 755 mmHg 76%
20:00 +8°C° 0.1 mm 4 mps 755 mmHg 84%
21:00 +9°C° 0.2 mm 3 mps 755 mmHg 86%
22:00 +9°C° 0.2 mm 3 mps 755 mmHg 88%
23:00 +9°C° 0.2 mm 3 mps 755 mmHg 91%

Day after tomorrow, 15 April, Thursday

Time Temperature Precipitation Wind Pressure Humidity
00:00 +9°C° 0 mm 3 mps 754 mmHg 92%
01:00 +9°C° 0 mm 3 mps 754 mmHg 93%
02:00 +9°C° 0 mm 3 mps 754 mmHg 94%
03:00 +9°C° 0.2 mm 2 mps 754 mmHg 94%
04:00 +8°C° 0.2 mm 2 mps 754 mmHg 95%
05:00 +8°C° 0.2 mm 2 mps 753 mmHg 96%
06:00 +8°C° 0.7 mm 2 mps 753 mmHg 95%
07:00 +8°C° 0.7 mm 3 mps 753 mmHg 94%
08:00 +9°C° 0.7 mm 3 mps 754 mmHg 93%
09:00 +9°C° 0.6 mm 3 mps 754 mmHg 88%
10:00 +9°C° 0.6 mm 3 mps 754 mmHg 83%
11:00 +10°C° 0.6 mm 4 mps 754 mmHg 79%
12:00 +10°C° 0 mm 4 mps 754 mmHg 76%
13:00 +9°C° 0 mm 5 mps 754 mmHg 74%
14:00 +9°C° 0 mm 6 mps 754 mmHg 71%
15:00 +8°C° 0 mm 6 mps 754 mmHg 73%
16:00 +8°C° 0 mm 6 mps 754 mmHg 74%
17:00 +7°C° 0 mm 6 mps 754 mmHg 76%
18:00 +5°C° 0 mm 6 mps 754 mmHg 79%
19:00 +4°C° 0 mm 6 mps 755 mmHg 81%
20:00 +5°C° 0 mm 5 mps 755 mmHg 84%
21:00 +5°C° 0 mm 5 mps 755 mmHg 85%
22:00 +3°C° 0 mm 5 mps 754 mmHg 85%
23:00 +3°C° 0 mm 5 mps 754 mmHg 86%

16 April, Friday

Time Temperature Precipitation Wind Pressure Humidity
00:00 +3°C° 0 mm 5 mps 754 mmHg 86%
01:00 +3°C° 0 mm 5 mps 754 mmHg 86%
02:00 +3°C° 0 mm 5 mps 754 mmHg 85%
03:00 +3°C° 0 mm 5 mps 754 mmHg 86%
04:00 +3°C° 0 mm 5 mps 754 mmHg 86%
05:00 +2°C° 0 mm 5 mps 754 mmHg 86%
06:00 +2°C° 0 mm 5 mps 754 mmHg 88%
07:00 +2°C° 0 mm 5 mps 754 mmHg 90%
08:00 +2°C° 0 mm 5 mps 755 mmHg 92%
09:00 +3°C° 0 mm 5 mps 755 mmHg 86%
10:00 +3°C° 0 mm 5 mps 755 mmHg 81%
11:00 +5°C° 0 mm 5 mps 755 mmHg 76%
12:00 +6°C° 0 mm 5 mps 755 mmHg 75%
13:00 +6°C° 0 mm 5 mps 756 mmHg 73%
14:00 +7°C° 0 mm 5 mps 756 mmHg 72%
15:00 +7°C° 0.1 mm 5 mps 756 mmHg 73%
16:00 +7°C° 0.1 mm 4 mps 756 mmHg 73%
17:00 +6°C° 0.1 mm 4 mps 756 mmHg 74%
18:00 +7°C° 0.2 mm 3 mps 756 mmHg 78%
19:00 +7°C° 0.2 mm 3 mps 757 mmHg 82%
20:00 +6°C° 0.2 mm 2 mps 757 mmHg 87%
21:00 +6°C° 0.3 mm 2 mps 757 mmHg 88%
22:00 +6°C° 0.3 mm 2 mps 757 mmHg 89%
23:00 +6°C° 0.3 mm 2 mps 757 mmHg 90%

17 April, Saturday

Time Temperature Precipitation Wind Pressure Humidity
00:00 +6°C° 0.1 mm 2 mps 757 mmHg 90%
01:00 +5°C° 0.1 mm 3 mps 757 mmHg 90%
02:00 +5°C° 0.1 mm 3 mps 757 mmHg 89%
03:00 +5°C° 0 mm 3 mps 758 mmHg 90%
04:00 +5°C° 0 mm 3 mps 758 mmHg 90%
05:00 +6°C° 0 mm 2 mps 758 mmHg 90%
06:00 +6°C° 0 mm 2 mps 758 mmHg 89%
07:00 +5°C° 0 mm 3 mps 759 mmHg 88%
08:00 +5°C° 0 mm 3 mps 759 mmHg 86%
09:00 +7°C° 0 mm 3 mps 759 mmHg 84%
10:00 +7°C° 0 mm 3 mps 759 mmHg 81%
11:00 +8°C° 0 mm 3 mps 760 mmHg 79%
12:00 +8°C° 0 mm 3 mps 760 mmHg 77%
13:00 +8°C° 0 mm 3 mps 760 mmHg 75%
14:00 +9°C° 0 mm 3 mps 760 mmHg 73%
15:00 +9°C° 0 mm 3 mps 760 mmHg 73%
16:00 +9°C° 0 mm 3 mps 760 mmHg 73%
17:00 +9°C° 0 mm 3 mps 760 mmHg 73%
18:00 +8°C° 0 mm 3 mps 760 mmHg 76%
19:00 +8°C° 0 mm 2 mps 761 mmHg 78%
20:00 +7°C° 0 mm 2 mps 761 mmHg 80%
21:00 +7°C° 0 mm 2 mps 761 mmHg 81%
22:00 +7°C° 0 mm 2 mps 761 mmHg 82%
23:00 +7°C° 0 mm 2 mps 761 mmHg 83%

18 April, Sunday

Time Temperature Precipitation Wind Pressure Humidity
00:00 +7°C° 0 mm 2 mps 761 mmHg 83%
01:00 +7°C° 0 mm 2 mps 761 mmHg 84%
02:00 +6°C° 0 mm 2 mps 761 mmHg 84%
03:00 +6°C° 0 mm 2 mps 761 mmHg 85%
04:00 +7°C° 0 mm 1 mps 762 mmHg 86%
05:00 +7°C° 0 mm 1 mps 762 mmHg 87%
06:00 +8°C° 0 mm 1 mps 762 mmHg 80%
07:00 +8°C° 0 mm 2 mps 762 mmHg 74%
08:00 +9°C° 0 mm 2 mps 762 mmHg 68%
09:00 +11°C° 0 mm 3 mps 762 mmHg 62%
10:00 +12°C° 0 mm 3 mps 762 mmHg 56%
11:00 +14°C° 0 mm 4 mps 762 mmHg 50%
12:00 +14°C° 0 mm 4 mps 762 mmHg 50%
13:00 +14°C° 0 mm 4 mps 762 mmHg 49%
14:00 +14°C° 0 mm 4 mps 762 mmHg 48%
15:00 +14°C° 0 mm 3 mps 762 mmHg 49%
16:00 +14°C° 0 mm 3 mps 762 mmHg 50%
17:00 +14°C° 0 mm 3 mps 762 mmHg 50%
18:00 +13°C° 0 mm 3 mps 762 mmHg 54%
19:00 +12°C° 0 mm 3 mps 762 mmHg 58%
20:00 +11°C° 0 mm 4 mps 763 mmHg 61%
21:00 +11°C° 0 mm 3 mps 763 mmHg 62%
22:00 +11°C° 0 mm 3 mps 763 mmHg 62%
23:00 +11°C° 0 mm 3 mps 762 mmHg 62%
Show more

We Need Your Consent

Meteoprog and our Service Providers may store and access personal data such as cookies, device identifiers or other similar technologies on your device and process such data to personalise content and ads, as well as provide social media features and to analyse the traffic.

  • Store and/or access information on your device

    Cookies, device identifiers or other information can be stored or accessed on your device for the purposes indicated above.

  • Personalised ads and content, ad and content measurement, audience insights, and products development

    Ads and content can be personalised based on a profile. More data can be added to better personalise ads and content. Ad and content performance can be measured. Insights about the audience who saw the ads and content can be derived. Such data can be used to develop or improve user’s experience, systems and software.

By clicking ‘I Agree’ you will allow the use of indicated cookies, device identifiers, web beacons or other similar technologies. Your settings can be changed in the browser on your device.

For certain purposes, legitimate interests may be relied on, rather than consent. You can read more about this in our Privacy and Cookie Policy.